Location: Pedimozza
(42.0500°N, 9.3500°E)
Time: 20:25:46
(UTC+00:00)

Cosmos 1745 Rocket - Pass Details

Date: 19 August 2019
Orbit: 953 x 998 km, 83.0° (Epoch: 19 October)

Event Time Altitude Azimuth Distance (km) Brightness Sun altitude
Rises 19:43:57 0° 356° (N) 3,649 7.6 -15.2°
Reaches altitude 10° 19:46:33 10° 1° (N) 2,695 6.8 -15.6°
Maximum altitude 19:52:33 54° 78° (ENE) 1,151 4.1 -16.6°
Enters shadow 19:56:05 25° 146° (SE) 1,839 4.9 -17.1°
